Tracking 29528 objects as of 12-Sep-2024
HD Live streaming from Space Station
objects crossing your sky now

CENTAURI 5 (TYVAK-0212)

Track CENTAURI 5 (TYVAK-0212) now!
10-day predictions
CENTAURI 5 (TYVAK-0212) is classified as:


NORAD ID: 52742
Int'l Code: 2022-057L
Perigee: 318.7 km
Apogee: 325.7 km
Inclination: 97.6 °
Period: 90.8 minutes
Semi major axis: 6693 km
RCS: Unknown
Launch date: May 25, 2022
Source: United States (US)
Launch site: AIR FORCE EASTERN TEST RANGE (AFETR)

Uplink (MHz):
Downlink (MHz):
Beacon (MHz):
Mode:
Call sign:
Status: Unknown

Your satellite tracking list
Your tracking list is empty




NASA's NSSDC Master Catalog

Two Line Element Set (TLE):
1 52742U 22057L   24256.35691551  .00407754  00000-0  16366-2 0  9991
2 52742  97.5700  36.5237 0005180 220.0041 140.0847 15.85446401128686
Source of the keplerian elements: AFSPC